Location: Unnamed
(42.1164°N, 2.7652°E)
Time: 19:33:11
(UTC+02:00)

ISS - Pass Details

Date: 11 May 2021
Orbit: 417 x 422 km, 51.6° (Epoch: 14 June)

Event Time Altitude Azimuth Distance (km) Brightness Sun altitude
Exits shadow 02:02:57 12° 35° (NE) 1,367 -0.5 -29.9°
Drops below altitude 10° 02:03:22 10° 39° (NE) 1,508 -0.3 -29.9°
Sets 02:05:42 0° 53° (NE) 2,376 0.6 -29.8°
